Home > Weather > Burlington > Past weeks

Flag for Canada Past Weather in Burlington, Ontario, Canada — Yesterday and Last 2 Weeks

Now
68 °F

Mild.


Feels Like: 68 °F
Forecast: 69 / 74 °F
Wind: 20 mph from Northeast

Location: Burlington Piers

Current Time: Jul 30, 2016 at 5:29:41 AM

Latest Report: Jul 30, 2016 at 5:00 AM


Visibility: N/A

Pressure: 30.00 "Hg

Humidity: 74%

Dew Point: 60 °F

Location of BurlingtonLocation

Past Weather in Burlington — Graph

°F

Burlington Temperature Yesterday

Maximum temperature yesterday: 73 °F (at 12:00 AM)
Minimum temperature yesterday: 69 °F (at 1:00 PM)
Average temperature yesterday: 71 °F

High & Low Weather Summary for the Past Weeks

 TemperatureHumidityPressure
High91 °F (Jul 22, 5:00 PM)96% (Jul 24, 6:00 PM)30.28 "Hg (Jul 24, 6:00 PM)
Low60 °F (Jul 16, 8:00 AM)26% (Jul 23, 4:00 PM)29.78 "Hg (Jul 15, 4:00 AM)
Average74 °F62%29.98 "Hg
* Reported Jul 15 4:00 AM — Jul 30 4:00 AM, Burlington, Weather by CustomWeather, © 2016

Note: Actual official high and low records may vary slightly from our data, if they occured in-between our weather recording intervals... More about our weather records

Advertising

Burlington Weather History for the Previous 24 Hours

Scroll right to see more
 ConditionsComfort  
Time TempWeatherWind HumidityBarometerVisibility
4:00 AM
Sat, Jul 30
69 °FMild.20 mph72%30.00 "HgN/A
3:00 AM69 °FMild.20 mph69%30.01 "HgN/A
2:00 AM71 °FMild.22 mph65%30.00 "HgN/A
1:00 AM73 °FMild.9 mph57%29.99 "HgN/A
12:00 AM73 °FMild.6 mph56%29.99 "HgN/A
11:00 PM
Fri, Jul 29
72 °FMild.3 mph75%29.99 "HgN/A
10:00 PM73 °FMild.1 mph71%29.98 "HgN/A
9:00 PM72 °FMild.3 mph76%29.96 "HgN/A
8:00 PM71 °FMild.2 mph79%29.96 "HgN/A
7:00 PM71 °FMild.3 mph76%29.96 "HgN/A
6:00 PM71 °FMild.2 mph76%29.95 "HgN/A
5:00 PM70 °FMild.3 mph78%29.95 "HgN/A
4:00 PM70 °FMild.6 mph76%29.96 "HgN/A
3:00 PM70 °FMild.8 mph75%29.97 "HgN/A
2:00 PM70 °FMild.9 mph68%29.97 "HgN/A
1:00 PM69 °FMild.12 mph70%29.98 "HgN/A
12:00 PM69 °FMild.14 mph66%29.98 "HgN/A
11:00 AM70 °FMild.13 mph67%29.97 "HgN/A
10:00 AM70 °FMild.12 mph67%29.97 "HgN/A
9:00 AM70 °FMild.12 mph66%29.96 "HgN/A
8:00 AM70 °FMild.13 mph67%29.95 "HgN/A
7:00 AM70 °FMild.7 mph79%29.94 "HgN/A
6:00 AM71 °FMild.6 mph74%29.92 "HgN/A
5:00 AM71 °FMild.7 mph68%29.92 "HgN/A
Weather by CustomWeather, © 2016

See weather overviewHow to use our weather pages